CW8845 Weather Reports


Display with metric or nautical units.
time (UTC)temp
F
wind
direction
speed
MPH
gust
MPH
rain 1hr
in
rain 24hr
in
rain mn
in
humidity
%
barometer
mb
20260905041622 68 63 1.0 8.0 0.00 0.00 0.00 40 1010.8
20260905040612 69 13 2.0 6.0 0.00 0.00 0.00 38 1010.7
20260905035613 71 160 1.0 5.0 0.00 0.00 0.00 37 1010.4
20260905034626 73 173 1.0 6.0 0.00 0.00 0.00 32 1010.2
20260905033637 75 192 2.0 10.0 0.00 0.00 0.00 29 1009.9
20260905032627 77 232 3.0 8.0 0.00 0.00 0.00 25 1009.7
20260905031618 78 221 3.0 7.0 0.00 0.00 0.00 23 1009.6
20260905030612 79 231 1.0 10.0 0.00 0.00 0.00 21 1009.6
20260905025615 80 173 9.0 14.0 0.00 0.00 0.00 20 1009.4
20260905024624 79 185 4.0 9.0 0.00 0.00 0.00 20 1009.2
20260905023617 79 140 3.0 8.0 0.00 0.00 0.00 19 1009.2
20260905022627 79 134 4.0 7.0 0.00 0.00 0.00 19 1009.2
20260905021616 79 117 1.0 7.0 0.00 0.00 0.00 18 1009.2
20260905020626 79 140 0.0 4.0 0.00 0.00 0.00 18 1009.3
20260905015612 80 169 1.0 3.0 0.00 0.00 0.00 17 1009.2
20260905014643 81 169 0.0 3.0 0.00 0.00 0.00 17 1009.2
20260905013613 81 172 1.0 4.0 0.00 0.00 0.00 17 1009.4
20260905012623 81 186 0.0 3.0 0.00 0.00 0.00 18 1009.4
20260905011617 81 186 1.0 9.0 0.00 0.00 0.00 18 1009.5
20260905010647 82 198 3.0 8.0 0.00 0.00 0.00 17 1009.6
20260905005628 82 177 4.0 7.0 0.00 0.00 0.00 16 1009.6
20260905004617 82 200 3.0 6.0 0.00 0.00 0.00 19 1009.7
20260905003626 83 195 4.0 11.0 0.00 0.00 0.00 18 1009.8
20260905002620 83 234 4.0 9.0 0.00 0.00 0.00 16 1009.8
20260905001629 83 182 4.0 10.0 0.00 0.00 0.00 15 1009.9
20260905000619 84 175 6.0 11.0 0.00 0.00 0.00 17 1010.0
20260904235622 84 182 8.0 12.0 0.00 0.00 0.00 16 1010.1
20260904234616 84 209 7.0 13.0 0.00 0.00 0.00 16 1010.1
20260904233625 84 197 8.0 13.0 0.00 0.00 0.00 16 1010.1
20260904232635 84 190 8.0 13.0 0.00 0.00 0.00 17 1010.2
20260904231624 84 171 6.0 14.0 0.00 0.00 0.00 15 1010.2
20260904230618 84 186 8.0 14.0 0.00 0.00 0.00 17 1010.3
20260904225620 84 175 10.0 15.0 0.00 0.00 0.00 15 1010.4
20260904224649 84 217 7.0 16.0 0.00 0.00 0.00 15 1010.4
20260904223621 84 158 8.0 14.0 0.00 0.00 0.00 17 1010.6
20260904222616 83 200 7.0 15.0 0.00 0.00 0.00 15 1010.7
20260904221627 84 200 7.0 12.0 0.00 0.00 0.00 17 1010.8
20260904220639 83 203 6.0 14.0 0.00 0.00 0.00 15 1011.0
20260904215641 83 223 7.0 14.0 0.00 0.00 0.00 17 1011.1
20260904214616 82 199 9.0 18.0 0.00 0.00 0.00 16 1011.2
20260904213649 82 180 8.0 15.0 0.00 0.00 0.00 14 1011.2
20260904212619 82 222 10.0 18.0 0.00 0.00 0.00 16 1011.4
20260904211651 81 192 9.0 17.0 0.00 0.00 0.00 16 1011.4
20260904210626 82 192 7.0 14.0 0.00 0.00 0.00 14 1011.4
20260904205649 81 185 8.0 15.0 0.00 0.00 0.00 15 1011.5
20260904204620 81 196 10.0 16.0 0.00 0.00 0.00 15 1011.6
20260904203631 81 195 10.0 16.0 0.00 0.00 0.00 15 1011.7
20260904202626 81 191 11.0 19.0 0.00 0.00 0.00 15 1011.7
20260904201618 80 171 9.0 17.0 0.00 0.00 0.00 16 1011.7
20260904200649 79 190 10.0 19.0 0.00 0.00 0.00 16 1011.9
20260904195631 80 180 11.0 17.0 0.00 0.00 0.00 16 1012.0
20260904194625 80 184 7.0 13.0 0.00 0.00 0.00 16 1012.0
20260904193614 79 190 5.0 16.0 0.00 0.00 0.00 16 1012.1
20260904192623 79 174 9.0 16.0 0.00 0.00 0.00 17 1012.1
20260904191634 79 225 8.0 18.0 0.00 0.00 0.00 17 1012.1
20260904190626 79 219 7.0 18.0 0.00 0.00 0.00 18 1012.2
20260904185648 78 175 8.0 13.0 0.00 0.00 0.00 19 1012.3
20260904184616 78 203 7.0 14.0 0.00 0.00 0.00 18 1012.5
20260904183628 77 241 7.0 10.0 0.00 0.00 0.00 21 1012.6
20260904182621 76 213 5.0 10.0 0.00 0.00 0.00 23 1012.8
20260904181651 75 233 4.0 10.0 0.00 0.00 0.00 25 1012.9
20260904180628 74 234 2.0 8.0 0.00 0.00 0.00 26 1013.0
20260904175629 73 196 2.0 6.0 0.00 0.00 0.00 28 1013.0
20260904174619 72 225 3.0 7.0 0.00 0.00 0.00 27 1013.2
20260904173612 71 290 1.0 5.0 0.00 0.00 0.00 33 1013.2
20260904172623 69 327 1.0 4.0 0.00 0.00 0.00 35 1013.2
20260904171615 68 19 2.0 5.0 0.00 0.00 0.00 36 1013.3
20260904170646 67 33 3.0 8.0 0.00 0.00 0.00 38 1013.4
20260904165632 66 355 3.0 9.0 0.00 0.00 0.00 42 1013.4
20260904164622 65 20 3.0 9.0 0.00 0.00 0.00 43 1013.5
20260904163613 64 11 5.0 10.0 0.00 0.00 0.00 44 1013.5
20260904162625 63 360 3.0 8.0 0.00 0.00 0.00 49 1013.5
20260904161620 62 14 3.0 10.0 0.00 0.00 0.00 51 1013.4
20260904160631 61 13 5.0 12.0 0.00 0.00 0.00 52 1013.4
20260904155635 60 22 1.0 11.0 0.00 0.00 0.00 54 1013.4
20260904154625 59 14 5.0 10.0 0.00 0.00 0.00 55 1013.4
20260904153620 58 355 4.0 15.0 0.00 0.00 0.00 56 1013.4
20260904152612 57 18 4.0 15.0 0.00 0.00 0.00 58 1013.4
20260904151643 56 344 6.0 16.0 0.00 0.00 0.00 59 1013.5
20260904150613 56 32 7.0 11.0 0.00 0.00 0.00 60 1013.6
20260904145620 55 19 4.0 11.0 0.00 0.00 0.00 61 1013.5
20260904144631 55 355 3.0 10.0 0.00 0.00 0.00 62 1013.5
20260904143622 54 18 2.0 11.0 0.00 0.00 0.00 64 1013.6
20260904142613 53 355 3.0 9.0 0.00 0.00 0.00 65 1013.4
20260904141627 52 5 4.0 10.0 0.00 0.00 0.00 67 1013.2
20260904140617 51 324 4.0 8.0 0.00 0.00 0.00 69 1013.2
20260904135619 50 344 3.0 9.0 0.00 0.00 0.00 69 1013.1
20260904134629 50 21 3.0 9.0 0.00 0.00 0.00 70 1012.9
20260904133623 50 36 4.0 9.0 0.00 0.00 0.00 69 1012.7
20260904132652 49 20 2.0 9.0 0.00 0.00 0.00 68 1012.7
20260904131620 50 300 3.0 9.0 0.00 0.00 0.00 68 1012.4
20260904130630 50 343 4.0 14.0 0.00 0.00 0.00 66 1012.1
20260904125617 51 348 7.0 13.0 0.00 0.00 0.00 65 1011.7
20260904124627 51 10 5.0 11.0 0.00 0.00 0.00 65 1011.6
20260904123618 51 344 4.0 8.0 0.00 0.00 0.00 63 1011.4
20260904122630 52 355 3.0 10.0 0.00 0.00 0.00 61 1011.3
20260904121623 52 15 2.0 6.0 0.00 0.00 0.00 60 1011.0
20260904120614 53 318 2.0 6.0 0.00 0.00 0.00 57 1011.0
20260904115637 55 338 0.0 4.0 0.00 0.00 0.00 51 1010.8
20260904114627 57 346 1.0 4.0 0.00 0.00 0.00 43 1010.5
20260904113620 59 229 0.0 8.0 0.00 0.00 0.00 34 1010.3
20260904112649 59 183 5.0 7.0 0.00 0.00 0.00 34 1010.0
20260904111618 59 184 3.0 6.0 0.00 0.00 0.00 35 1009.8
20260904110628 60 195 1.0 4.0 0.00 0.00 0.00 31 1009.7
20260904105613 60 215 1.0 4.0 0.00 0.00 0.00 31 1009.6
20260904104624 61 183 1.0 3.0 0.00 0.00 0.00 31 1009.3
20260904103614 61 182 1.0 4.0 0.00 0.00 0.00 30 1009.2
20260904102624 63 193 3.0 6.0 0.00 0.00 0.00 29 1009.1
20260904101639 64 188 3.0 8.0 0.00 0.00 0.00 28 1008.8
20260904100629 64 197 6.0 10.0 0.00 0.00 0.00 29 1008.6
20260904095630 64 184 5.0 9.0 0.00 0.00 0.00 32 1008.4
20260904094619 63 192 6.0 10.0 0.00 0.00 0.00 37 1008.3
20260904093631 64 191 6.0 9.0 0.00 0.00 0.00 37 1008.1
20260904092622 67 180 4.0 7.0 0.00 0.00 0.00 33 1008.0
20260904091613 71 230 4.0 18.0 0.00 0.00 0.00 27 1007.9
20260904090625 73 201 12.0 22.0 0.00 0.00 0.00 23 1007.8
20260904085631 73 153 12.0 22.0 0.00 0.00 0.00 22 1007.6
20260904084621 73 184 13.0 21.0 0.00 0.00 0.00 23 1007.6
20260904083632 73 171 9.0 18.0 0.00 0.00 0.00 22 1007.6
20260904082625 73 167 11.0 21.0 0.00 0.00 0.00 22 1007.4
20260904081614 73 197 7.0 20.0 0.00 0.00 0.00 23 1007.3
20260904080624 73 190 10.0 18.0 0.00 0.00 0.00 23 1007.3
20260904075627 73 163 7.0 15.0 0.00 0.00 0.00 23 1007.3
20260904074621 74 194 8.0 18.0 0.00 0.00 0.00 22 1007.1
20260904073652 74 182 9.0 18.0 0.00 0.00 0.00 21 1007.1
20260904072620 74 198 7.0 12.0 0.00 0.00 0.00 22 1007.0
20260904071630 74 207 8.0 17.0 0.00 0.00 0.00 21 1007.0
20260904070624 75 175 7.0 20.0 0.00 0.00 0.00 20 1007.0
20260904065628 75 192 6.0 13.0 0.00 0.00 0.00 20 1006.9
20260904064617 74 163 8.0 12.0 0.00 0.00 0.00 19 1006.8
20260904063627 71 163 2.0 12.0 0.00 0.00 0.00 20 1007.0
20260904062622 63 203 2.0 11.0 0.00 0.00 0.00 26 1007.0
20260904061612 59 5 1.0 9.0 0.00 0.00 0.00 31 1007.0
20260904060629 58 360 0.0 6.0 0.00 0.00 0.00 31 1007.0
20260904055613 60 11 2.0 9.0 0.00 0.00 0.00 29 1007.1
20260904054624 60 17 4.0 9.0 0.00 0.00 0.00 29 1007.3
20260904053618 61 57 2.0 5.0 0.00 0.00 0.00 27 1007.4
20260904052628 62 26 2.0 6.0 0.00 0.00 0.00 27 1007.4
20260904051640 63 324 0.0 4.0 0.00 0.00 0.00 26 1007.4
20260904050629 65 67 2.0 6.0 0.00 0.00 0.00 24 1007.6
20260904045615 66 342 2.0 6.0 0.00 0.00 0.00 22 1007.6
20260904044624 66 355 2.0 9.0 0.00 0.00 0.00 23 1007.6
20260904043636 65 360 2.0 8.0 0.00 0.00 0.00 24 1007.8
20260904042624 65 355 2.0 6.0 0.00 0.00 0.00 25 1007.8